User: anonymous   Login
Location: Unspecified
(0.0000°N, 0.0000°E)
Time: 12:37:37
(UTC+00:00)
Language:

Feng Yun - Orbit

View from above orbital plane
View from above orbital plane
View from above satellite
View from above satellite

Ground track
Ground track

The orbit data is extracted from the following two-line orbital elements,

1 24834U 97029A   18171.44821330 -.00000180 +00000-0 +00000-0 0  9991
2 24834 014.0360 027.5503 0098413 168.3348 025.0251 00.96052037075365
Epoch (UTC): 20 June 2018 10:45:25
Eccentricity: 0.0098413
inclination: 14.0360°
perigee height: 36585 km
apogee height: 37439 km
right ascension of ascending node: 27.5503°
argument of perigee: 168.3348°
revolutions per day: 0.96052037
mean anomaly at epoch: 25.0251°
orbit number at epoch: 7536

The dashed part of the orbit path shows where the satellite is in the earth's shadow,  

DLR